TimePST,TemperatureF,Dew PointF,Humidity,Sea Level PressureIn,VisibilityMPH,Wind Direction,Wind SpeedMPH,Gust SpeedMPH,PrecipitationIn,Events,Conditions,WindDirDegrees,DateUTC
12:58 AM,42.3,41.9,99,30.23,10.0,WSW,4.6,-,0.05,Rain,Light Rain,240,2012-11-23 08:58:00
1:06 AM,42.8,42.8,100,30.20,10.0,Calm,Calm,-,N/A,,Overcast,360,2012-11-23 09:06:00
1:52 AM,42.8,41.0,93,30.19,10.0,West,2.3,-,N/A,Rain,Light Rain,260,2012-11-23 09:52:00
1:58 AM,42.1,41.9,99,30.22,10.0,West,3.5,-,0.00,Rain,Light Rain,260,2012-11-23 09:58:00
2:20 AM,42.8,41.0,93,30.18,9.0,Calm,Calm,-,N/A,,Scattered Clouds,10,2012-11-23 10:20:00
2:58 AM,41.7,41.5,99,30.18,9.0,ESE,4.6,-,0.01,,Mostly Cloudy,120,2012-11-23 10:58:00
2:59 AM,41.0,41.0,100,30.16,9.0,ESE,4.6,-,N/A,Rain,Light Rain,120,2012-11-23 10:59:00
3:18 AM,42.8,41.0,93,30.14,10.0,Calm,Calm,-,N/A,,Mostly Cloudy,60,2012-11-23 11:18:00
3:24 AM,42.8,41.0,93,30.15,10.0,Calm,Calm,-,N/A,Rain,Light Rain,0,2012-11-23 11:24:00
3:58 AM,42.1,41.9,99,30.17,8.0,WNW,5.8,-,0.02,Rain,Light Rain,300,2012-11-23 11:58:00
4:58 AM,42.3,42.1,99,30.14,8.0,NE,2.3,-,0.02,Rain,Light Rain,40,2012-11-23 12:58:00
5:58 AM,43.0,42.6,99,30.13,10.0,NW,3.5,-,0.01,Rain,Light Rain,320,2012-11-23 13:58:00
6:58 AM,43.0,42.6,99,30.12,6.0,WNW,2.3,-,0.05,Rain,Light Rain,300,2012-11-23 14:58:00
7:58 AM,43.5,43.3,99,30.13,10.0,NNW,2.3,-,0.04,Rain,Light Rain,330,2012-11-23 15:58:00
8:28 AM,44.6,44.6,100,30.11,10.0,Calm,Calm,-,N/A,Rain,Light Rain,10,2012-11-23 16:28:00
8:58 AM,44.2,44.1,99,30.13,9.0,North,3.5,-,0.02,Rain,Light Rain,350,2012-11-23 16:58:00
9:18 AM,44.6,44.6,100,30.11,10.0,NNW,3.5,-,N/A,Rain,Light Rain,340,2012-11-23 17:18:00
9:53 AM,44.6,44.6,100,30.09,9.0,ESE,4.6,-,N/A,Rain,Light Rain,110,2012-11-23 17:53:00
9:54 AM,44.6,44.6,100,30.09,10.0,East,4.6,-,N/A,,Overcast,100,2012-11-23 17:54:00
9:58 AM,44.4,44.2,99,30.12,10.0,East,2.3,-,0.04,,Overcast,100,2012-11-23 17:58:00
10:31 AM,44.6,44.6,100,30.12,10.0,NW,3.5,-,N/A,Rain,Light Rain,320,2012-11-23 18:31:00
10:43 AM,44.6,44.6,100,30.12,6.0,NNW,6.9,-,N/A,Rain,Rain,330,2012-11-23 18:43:00
10:53 AM,44.6,44.6,100,30.10,9.0,NNE,5.8,-,N/A,Rain,Light Rain,20,2012-11-23 18:53:00
10:58 AM,44.8,44.6,99,30.12,10.0,NE,3.5,-,0.02,Rain,Light Rain,50,2012-11-23 18:58:00
11:01 AM,44.6,44.6,100,30.10,10.0,ENE,3.5,-,N/A,,Overcast,60,2012-11-23 19:01:00
11:11 AM,44.6,44.6,100,30.09,10.0,NNE,2.3,-,N/A,,Overcast,20,2012-11-23 19:11:00
11:17 AM,44.6,44.6,100,30.09,10.0,Calm,Calm,-,N/A,Rain,Light Rain,10,2012-11-23 19:17:00
11:37 AM,46.4,44.6,93,30.11,5.0,NW,5.8,-,N/A,Rain,Light Rain,310,2012-11-23 19:37:00
11:39 AM,46.4,44.6,93,30.10,4.0,NW,5.8,-,N/A,Rain,Light Rain,310,2012-11-23 19:39:00
11:58 AM,45.5,45.3,99,30.12,4.0,Calm,Calm,-,0.04,Rain,Light Rain,40,2012-11-23 19:58:00
12:18 PM,46.4,44.6,93,30.07,4.0,ESE,6.9,-,N/A,Rain,Light Rain,110,2012-11-23 20:18:00
12:58 PM,46.0,45.7,99,30.07,10.0,North,2.3,-,0.06,Rain,Light Rain,10,2012-11-23 20:58:00
1:01 PM,46.4,46.4,100,30.05,10.0,North,2.3,-,N/A,,Overcast,360,2012-11-23 21:01:00
1:16 PM,46.4,46.4,100,30.06,10.0,NW,5.8,-,N/A,,Overcast,320,2012-11-23 21:16:00
1:34 PM,46.4,46.4,100,30.06,10.0,NNW,8.1,-,N/A,Rain,Light Rain,340,2012-11-23 21:34:00
1:49 PM,46.4,46.4,100,30.06,2.0,North,5.8,-,N/A,Rain,Heavy Rain,350,2012-11-23 21:49:00
1:50 PM,46.4,46.4,100,30.06,2.0,North,5.8,-,N/A,Rain,Heavy Rain,350,2012-11-23 21:50:00
1:55 PM,46.4,46.4,100,30.06,2.0,North,5.8,-,N/A,Rain,Rain,10,2012-11-23 21:55:00
1:56 PM,46.4,46.4,100,30.06,2.0,NNE,5.8,-,N/A,Rain,Rain,20,2012-11-23 21:56:00
1:58 PM,46.4,46.4,100,30.08,2.5,North,5.8,-,0.09,Rain,Rain,10,2012-11-23 21:58:00
2:03 PM,46.4,46.4,100,30.06,2.5,Variable,3.5,-,N/A,Rain,Rain,0,2012-11-23 22:03:00
2:08 PM,46.4,46.4,100,30.06,3.0,Calm,Calm,-,N/A,Rain,Light Rain,0,2012-11-23 22:08:00
2:13 PM,46.4,46.4,100,30.06,2.5,Calm,Calm,-,N/A,Rain,Rain,360,2012-11-23 22:13:00
2:18 PM,46.4,46.4,100,30.05,1.5,ENE,4.6,-,N/A,Rain,Heavy Rain,60,2012-11-23 22:18:00
2:28 PM,46.4,46.4,100,30.04,2.5,East,3.5,-,N/A,Rain,Light Rain,100,2012-11-23 22:28:00
2:33 PM,46.4,46.4,100,30.06,4.0,North,2.3,-,N/A,Rain,Light Rain,360,2012-11-23 22:33:00
2:43 PM,46.4,46.4,100,30.06,1.8,WNW,2.3,-,N/A,Rain,Heavy Rain,300,2012-11-23 22:43:00
2:48 PM,46.4,46.4,100,30.05,1.5,ENE,1.2,-,N/A,Rain,Rain,60,2012-11-23 22:48:00
2:53 PM,46.4,46.4,100,30.05,2.0,East,3.5,-,N/A,Rain,Light Rain,80,2012-11-23 22:53:00
2:58 PM,46.4,46.4,100,30.07,3.0,ESE,2.3,-,0.15,Rain,Light Rain,110,2012-11-23 22:58:00
3:03 PM,46.4,46.4,100,30.05,3.0,East,3.5,-,N/A,Rain,Light Rain,100,2012-11-23 23:03:00
3:13 PM,46.4,46.4,100,30.05,2.5,ESE,1.2,-,N/A,Rain,Rain,110,2012-11-23 23:13:00
3:18 PM,46.4,46.4,100,30.05,2.0,SE,2.3,-,N/A,Rain,Rain,130,2012-11-23 23:18:00
3:28 PM,46.4,46.4,100,30.04,2.5,SE,4.6,-,N/A,Rain,Light Rain,130,2012-11-23 23:28:00
3:33 PM,46.4,46.4,100,30.04,3.0,ESE,2.3,-,N/A,Rain,Light Rain,120,2012-11-23 23:33:00
3:38 PM,46.4,46.4,100,30.04,2.5,ESE,2.3,-,N/A,Rain,Light Rain,110,2012-11-23 23:38:00
3:43 PM,46.4,46.4,100,30.05,2.0,ESE,3.5,-,N/A,Rain,Light Rain,110,2012-11-23 23:43:00
3:48 PM,46.4,46.4,100,30.05,2.5,ESE,2.3,-,N/A,Rain,Light Rain,110,2012-11-23 23:48:00
3:53 PM,46.4,46.4,100,30.05,3.0,Calm,Calm,-,N/A,Rain,Light Rain,0,2012-11-23 23:53:00
3:58 PM,46.9,46.8,99,30.07,3.0,Calm,Calm,-,0.10,Rain,Light Rain,0,2012-11-23 23:58:00
4:03 PM,46.4,46.4,100,30.05,2.5,Calm,Calm,-,N/A,Rain,Light Rain,0,2012-11-24 00:03:00
4:13 PM,46.4,46.4,100,30.05,3.0,ESE,1.2,-,N/A,,Light Drizzle,120,2012-11-24 00:13:00
4:16 PM,46.4,46.4,100,30.05,2.5,ESE,2.3,-,N/A,,Overcast,120,2012-11-24 00:16:00
4:21 PM,46.4,46.4,100,30.05,2.5,SE,2.3,-,N/A,,Overcast,140,2012-11-24 00:21:00
4:26 PM,46.4,46.4,100,30.04,3.0,SE,2.3,-,N/A,,Overcast,140,2012-11-24 00:26:00
4:29 PM,46.4,46.4,100,30.04,3.0,SSE,3.5,-,N/A,,Overcast,150,2012-11-24 00:29:00
4:58 PM,46.9,46.6,99,30.06,8.0,SE,2.3,-,0.01,,Overcast,130,2012-11-24 00:58:00
5:58 PM,47.7,47.5,99,30.06,10.0,SSW,5.8,-,N/A,,Overcast,210,2012-11-24 01:58:00
6:08 PM,48.2,48.2,100,30.04,10.0,SSW,10.4,-,N/A,,Overcast,200,2012-11-24 02:08:00
6:33 PM,50.0,50.0,100,30.04,10.0,SSW,12.7,-,N/A,,Overcast,200,2012-11-24 02:33:00
6:58 PM,50.0,49.8,99,30.07,10.0,SSW,11.5,-,N/A,,Overcast,210,2012-11-24 02:58:00
7:08 PM,50.0,50.0,100,30.06,10.0,SSW,12.7,-,N/A,,Overcast,210,2012-11-24 03:08:00
7:26 PM,50.0,50.0,100,30.07,7.0,SW,11.5,-,N/A,,Light Drizzle,220,2012-11-24 03:26:00
7:31 PM,50.0,50.0,100,30.07,5.0,SW,9.2,-,N/A,,Light Drizzle,220,2012-11-24 03:31:00
7:36 PM,50.0,50.0,100,30.07,4.0,SSW,11.5,-,N/A,,Light Drizzle,210,2012-11-24 03:36:00
7:41 PM,50.0,50.0,100,30.07,4.0,SSW,9.2,-,N/A,,Light Drizzle,210,2012-11-24 03:41:00
7:49 PM,50.0,48.2,94,30.08,5.0,SSW,10.4,-,N/A,,Overcast,210,2012-11-24 03:49:00
7:58 PM,49.3,48.9,99,30.10,7.0,SSW,11.5,-,0.00,,Overcast,210,2012-11-24 03:58:00
8:13 PM,50.0,48.2,94,30.08,10.0,SSW,10.4,-,N/A,,Overcast,200,2012-11-24 04:13:00
8:33 PM,50.0,48.2,94,30.09,10.0,SSW,10.4,-,N/A,,Overcast,200,2012-11-24 04:33:00
8:38 PM,50.0,48.2,94,30.09,10.0,SSW,10.4,-,N/A,,Overcast,200,2012-11-24 04:38:00
8:43 PM,50.0,48.2,94,30.09,10.0,SSW,9.2,-,N/A,,Overcast,200,2012-11-24 04:43:00
8:58 PM,48.9,48.7,99,30.11,10.0,SSW,8.1,-,N/A,,Overcast,200,2012-11-24 04:58:00
9:07 PM,48.2,48.2,100,30.10,10.0,SSW,9.2,-,N/A,,Overcast,200,2012-11-24 05:07:00
9:58 PM,48.7,48.6,99,30.13,10.0,SSW,8.1,-,N/A,,Overcast,210,2012-11-24 05:58:00
10:33 PM,48.2,48.2,100,30.12,10.0,SSW,9.2,-,N/A,,Overcast,210,2012-11-24 06:33:00
10:58 PM,48.4,48.0,99,30.14,10.0,SSW,10.4,-,N/A,,Overcast,210,2012-11-24 06:58:00
11:58 PM,47.5,47.1,99,30.16,10.0,SSW,11.5,-,N/A,,Overcast,200,2012-11-24 07:58:00